[[{"header":{"parameterUnit":"m.s-1","parameterCategory":1,"la1":30.2991,"la2":30.254,"lo1":-89.0895,"lo2":-89.0444,"dy":0.0017,"dx":0.0017,"nx":28,"ny":28,"refTime":"2025-08-29T09:00:00:Z","depth":0,"parameterNumber":2,"parameterNumberName":"U-component_of_WINDS"},"data":[0,0,0,0,0,0,0,0,0,0,0,0,0,0,0,0,0,0,0,0,0,0,0,0,0,0,0,0,0,0,0,0,0,0,0,0,0,0,0,0,0,0,0,0,0,0,0,0,0,0,0,0,0,0,0,0,0,0,2.0408,2.041,0,2.0549,2.055,2.0552,2.0407,2.0402,2.0396,2.0391,2.0541,2.055,2.0559,0,0,0,0,0,0,0,0,0,0,0,0,0,2.0019,2.0027,2.0408,2.041,2.0412,2.0549,2.055,2.0552,2.0408,2.0401,2.0395,2.0388,2.0538,2.0549,2.056,0,0,0,0,0,0,0,0,0,0,0,0,0,2.0177,2.003,2.0408,2.0356,2.0353,2.0548,2.0551,2.0553,2.041,2.0401,2.0393,2.0385,2.0534,2.0548,2.0561,2.0817,0,0,2.0604,2.061,0,0,0,0,0,0,0,0,2.0168,2.0192,2.0362,2.036,2.0357,2.0452,2.0468,2.0642,2.0412,2.0388,2.0391,2.0381,2.0518,2.0533,2.0578,2.0824,2.083,2.0605,2.0614,2.0619,2.0623,0,0,0,0,0,0,0,2.0158,2.0185,2.0464,2.0365,2.0361,2.0327,2.034,2.05,2.05,2.039,2.038,2.0398,2.0515,2.0565,2.0581,2.0832,2.0605,2.0617,2.0626,2.0631,2.1294,2.1303,0,0,0,0,0,0,2.0152,2.0177,2.0459,2.0468,2.0239,2.0341,2.0356,2.043,2.0497,2.0499,2.0405,2.0391,2.0546,2.0565,2.0586,2.089,2.0619,2.0632,2.064,2.1285,2.1296,2.1306,0,0,0,0,0,0,2.0144,2.0178,2.0454,2.032,2.0352,2.0357,2.0441,2.0437,2.0487,2.0509,2.0508,2.0456,2.054,2.0566,2.076,2.0893,2.0639,2.0651,2.1274,2.1288,2.1301,2.15,0,0,0,0,0,0,2.0133,2.0176,2.0273,2.0323,2.036,2.0626,2.0449,2.0446,2.051,2.0493,2.0556,2.0559,2.0535,2.074,2.0774,2.0908,2.0662,2.1262,2.128,2.1297,2.1482,2.1519,2.1551,0,0,0,0,0,2.012,2.0325,2.0278,2.0313,2.048,2.0633,2.0655,2.0622,2.0522,2.0619,2.0633,2.0557,2.0872,2.0761,2.0798,2.0938,2.1254,2.1275,2.1295,2.1466,2.1512,2.155,0,0,0,0,0,0,2.0293,2.033,2.028,2.0506,2.0567,2.0609,2.0731,2.0671,2.0764,2.0744,2.07,2.0716,2.0922,2.0948,2.0824,2.1188,2.1047,2.1076,2.1164,2.1208,2.1242,2.1233,2.0674,0,0,0,0,0,2.0357,2.0477,2.0503,2.0701,2.0733,2.0727,2.0793,2.0761,2.0824,2.085,2.0878,2.0943,2.1056,2.1133,2.1238,2.1483,2.1496,2.1597,2.1632,2.166,2.1688,2.182,2.1866,2.1375,2.1374,2.1374,0,0,2.0492,2.0527,2.0606,2.0736,2.078,2.0907,2.075,2.0891,2.0985,2.0872,2.1057,2.108,2.1149,2.137,2.1469,2.1399,2.1825,2.1687,2.1709,2.1721,2.1846,2.1892,2.1934,2.1389,2.1386,2.1384,0,0,2.0803,2.084,2.1009,2.1055,2.1122,2.1116,2.1157,2.1207,2.1217,2.1401,2.1318,2.1429,2.1626,2.1679,2.1732,2.2059,2.1993,2.2095,2.2278,2.2407,2.2446,2.248,2.2599,2.2642,2.2121,2.2121,2.2121,0,2.0963,2.1149,2.1104,2.1251,2.1311,2.121,2.1382,2.143,2.153,2.1574,2.1493,2.1736,2.1776,2.2008,2.2088,2.2133,2.218,2.209,2.2443,2.2477,2.2508,2.2621,2.2666,2.2133,2.2132,2.2131,2.2129,0,2.1343,2.1473,2.1601,2.1698,2.1772,2.1931,2.1911,2.1992,2.1953,2.1956,2.2145,2.2188,2.2301,2.2352,2.2317,2.258,2.2534,2.2449,2.2307,2.2568,2.2674,2.2716,2.2151,2.2146,2.2143,2.214,0,0,2.1772,2.1838,2.1887,2.1929,2.1994,2.2095,2.2248,2.2356,2.2427,2.2497,2.2627,2.2793,2.2714,2.2774,2.2743,2.2856,2.3115,2.2757,2.2758,2.2824,2.3409,2.3476,2.3526,2.3069,2.3077,2.3083,2.3404,0,2.2086,2.2351,2.2315,2.257,2.2691,2.2595,2.2729,2.2784,2.279,2.2894,2.29,2.302,2.2905,2.2941,2.3048,2.3061,2.3232,2.3036,2.3192,2.3198,2.3181,2.3581,2.3652,2.3953,2.3445,2.3452,2.3457,0,2.249,2.2573,2.2841,2.2886,2.2935,2.3056,2.3151,2.3251,2.3311,2.3307,2.3373,2.3321,2.3475,2.3327,2.354,2.3408,2.3468,2.3484,2.3494,2.3511,2.3346,2.3612,2.4048,2.4095,2.3521,2.3516,2.3511,0,2.278,2.2958,2.3141,2.3179,2.3236,2.3324,2.3352,2.3403,2.347,2.3553,2.3596,2.3697,2.3754,2.3833,2.381,2.3703,2.403,2.3878,2.4033,2.4034,2.411,2.4106,2.4565,2.4143,2.4142,2.4141,2.414,0,2.3137,2.3306,2.3271,2.3385,2.357,2.3525,2.3711,2.3727,2.3773,2.3889,2.3811,2.3922,2.3882,2.3991,2.3973,2.4153,2.4179,2.4181,2.4175,2.4191,2.4191,2.4233,2.4213,2.4153,2.415,2.4148,2.4146,0,2.3494,2.3478,2.3671,2.3708,2.372,2.3856,2.3888,2.3995,2.3992,2.4139,2.4171,2.4169,2.4292,2.4275,2.4413,2.4401,2.4626,2.4593,2.4606,2.46,2.4756,2.4743,2.5262,2.5328,2.486,2.4864,2.4868,0,2.3726,2.3852,2.3901,2.3972,2.4005,2.412,2.4187,2.4147,2.422,2.4297,2.4395,2.451,2.4601,2.4803,2.4814,2.4919,2.489,2.5064,2.4906,2.4917,2.4896,2.489,2.4903,2.5097,2.5103,2.5107,2.511,0,2.4139,2.4123,2.4222,2.4318,2.4399,2.4473,2.454,2.4602,2.4568,2.4654,2.4778,2.4848,2.4987,2.5104,2.5202,2.5231,2.5168,2.5159,2.5201,2.522,2.5223,2.5226,2.4695,2.5149,2.5145,2.5142,2.514,2.5139,2.4442,2.455,2.4601,2.4713,2.4758,2.4821,2.4923,2.4932,2.5034,2.5143,2.5113,2.5254,2.5309,2.5433,2.5473,2.5583,2.5519,2.558,2.5595,2.5612,2.5632,2.5202,2.56,2.5599,2.5598,2.5597,2.5596,0,2.4854,2.488,2.4984,2.5078,2.5166,2.5093,2.5162,2.5242,2.5366,2.5422,2.5512,2.5654,2.5766,2.5784,2.5891,2.5975,2.5949,2.6005,2.6,2.6009,2.5681,2.5636,2.6025,2.6025,2.6025,2.6025,2.6025,2.6025,2.5079,2.5258,2.5248,2.5449,2.5475,2.5611,2.5657,2.5715,2.5759,2.5921,2.6013,2.6023,2.6064,2.6172,2.6272,2.6274,2.6318,2.6387,2.6379,2.6074,2.6032,2.5991,2.5948,2.6396,2.6397,2.6697,2.67,2.6702]},{"header":{"parameterUnit":"m.s-1","parameterCategory":1,"la1":30.2991,"la2":30.254,"lo1":-89.0895,"lo2":-89.0444,"dy":0.0017,"dx":0.0017,"nx":28,"ny":28,"refTime":"2025-08-29T09:00:00:Z","depth":0,"parameterNumber":3,"parameterNumberName":"V-component_of_WINDS"},"data":[0,0,0,0,0,0,0,0,0,0,0,0,0,0,0,0,0,0,0,0,0,0,0,0,0,0,0,0,0,0,0,0,0,0,0,0,0,0,0,0,0,0,0,0,0,0,0,0,0,0,0,0,0,0,0,0,0,0,-1.3577,-1.3573,0,-1.3196,-1.3192,-1.3187,-1.3111,-1.3114,-1.3117,-1.312,-1.2693,-1.268,-1.2665,0,0,0,0,0,0,0,0,0,0,0,0,0,-1.4203,-1.4192,-1.3578,-1.3573,-1.3568,-1.3197,-1.3191,-1.3186,-1.3111,-1.3114,-1.3118,-1.3122,-1.2698,-1.2681,-1.2664,0,0,0,0,0,0,0,0,0,0,0,0,0,-1.3887,-1.4189,-1.3579,-1.3487,-1.3475,-1.3198,-1.3191,-1.3185,-1.311,-1.3114,-1.3119,-1.3123,-1.2704,-1.2683,-1.2662,-1.2438,0,0,-1.2597,-1.2587,0,0,0,0,0,0,0,0,-1.3905,-1.3864,-1.3505,-1.3493,-1.3479,-1.3207,-1.3255,-1.2933,-1.3109,-1.3247,-1.312,-1.3126,-1.2858,-1.2824,-1.2741,-1.2418,-1.24,-1.2595,-1.2582,-1.2573,-1.2567,0,0,0,0,0,0,0,-1.3927,-1.3879,-1.3425,-1.35,-1.3483,-1.3452,-1.3412,-1.3194,-1.303,-1.3235,-1.3229,-1.3187,-1.2851,-1.2762,-1.2731,-1.2394,-1.2595,-1.2576,-1.2563,-1.2555,-1.1857,-1.1851,0,0,0,0,0,0,-1.397,-1.3899,-1.3438,-1.3414,-1.3709,-1.3437,-1.3393,-1.3289,-1.3033,-1.2999,-1.3184,-1.3185,-1.2796,-1.2756,-1.2715,-1.2431,-1.2573,-1.2553,-1.2541,-1.1862,-1.1855,-1.1849,0,0,0,0,0,0,-1.3984,-1.393,-1.3453,-1.3655,-1.3592,-1.3422,-1.3305,-1.3279,-1.319,-1.2994,-1.2961,-1.3125,-1.2798,-1.2745,-1.2508,-1.2415,-1.2543,-1.2524,-1.1869,-1.186,-1.1852,-1.1864,0,0,0,0,0,0,-1.4002,-1.3936,-1.3858,-1.3654,-1.3582,-1.3264,-1.33,-1.3268,-1.3158,-1.3156,-1.293,-1.2897,-1.2798,-1.2541,-1.2487,-1.2388,-1.2507,-1.1876,-1.1865,-1.1855,-1.1871,-1.1857,-1.1845,0,0,0,0,0,-1.4025,-1.3871,-1.3855,-1.38,-1.3483,-1.3259,-1.3216,-1.3116,-1.3151,-1.3065,-1.2938,-1.2904,-1.2436,-1.2517,-1.2456,-1.2349,-1.1882,-1.1868,-1.1856,-1.1877,-1.186,-1.1845,0,0,0,0,0,0,-1.4057,-1.3842,-1.3822,-1.36,-1.345,-1.3247,-1.3137,-1.3102,-1.2929,-1.2933,-1.2805,-1.2754,-1.2522,-1.2411,-1.2507,-1.2114,-1.2159,-1.2133,-1.2196,-1.2177,-1.2165,-1.2193,-1.2489,0,0,0,0,0,-1.4041,-1.3889,-1.3704,-1.3525,-1.3452,-1.3308,-1.3206,-1.3143,-1.2976,-1.2909,-1.2764,-1.2594,-1.2407,-1.2287,-1.2105,-1.1856,-1.1798,-1.1751,-1.1738,-1.1728,-1.1705,-1.1555,-1.1529,-1.1807,-1.1807,-1.1807,0,0,-1.4,-1.3864,-1.3774,-1.3528,-1.3404,-1.3237,-1.3254,-1.3078,-1.2948,-1.2878,-1.2647,-1.2535,-1.2334,-1.2089,-1.1973,-1.1989,-1.1617,-1.1712,-1.1706,-1.1687,-1.1539,-1.1513,-1.149,-1.1798,-1.1799,-1.1801,0,0,-1.3841,-1.3728,-1.3563,-1.344,-1.3256,-1.3161,-1.3121,-1.2923,-1.2849,-1.2618,-1.256,-1.2397,-1.2082,-1.194,-1.1826,-1.161,-1.1567,-1.1553,-1.1481,-1.1337,-1.1315,-1.1295,-1.1209,-1.1181,-1.1532,-1.1532,-1.1531,0,-1.381,-1.357,-1.348,-1.3307,-1.3195,-1.3135,-1.2959,-1.284,-1.26,-1.2518,-1.2544,-1.2143,-1.2004,-1.1721,-1.1669,-1.1581,-1.1521,-1.1576,-1.1328,-1.1307,-1.1286,-1.1203,-1.1172,-1.1531,-1.1531,-1.1531,-1.1531,0,-1.3537,-1.3369,-1.3256,-1.3039,-1.2914,-1.274,-1.2612,-1.2494,-1.244,-1.2338,-1.2096,-1.1928,-1.1709,-1.1637,-1.1579,-1.1341,-1.1356,-1.1357,-1.1397,-1.1261,-1.1179,-1.1147,-1.1529,-1.1529,-1.153,-1.153,0,0,-1.3386,-1.3123,-1.3082,-1.2979,-1.277,-1.2632,-1.2449,-1.2246,-1.2143,-1.1978,-1.1814,-1.1547,-1.1545,-1.1416,-1.134,-1.1215,-1.1043,-1.1227,-1.122,-1.1193,-1.076,-1.0758,-1.0723,-1.1017,-1.101,-1.1005,-1.0774,0,-1.3196,-1.2885,-1.2796,-1.2526,-1.2363,-1.2302,-1.2141,-1.1988,-1.1886,-1.1723,-1.1605,-1.1416,-1.1432,-1.1353,-1.1226,-1.1092,-1.0953,-1.1108,-1.0849,-1.0841,-1.0897,-1.0682,-1.068,-1.047,-1.0743,-1.0737,-1.0734,0,-1.2935,-1.2776,-1.2494,-1.2301,-1.2229,-1.2089,-1.1891,-1.1741,-1.156,-1.1493,-1.135,-1.1285,-1.1078,-1.1135,-1.0841,-1.0948,-1.0836,-1.0753,-1.0742,-1.0708,-1.0776,-1.0635,-1.0402,-1.0368,-1.0684,-1.0688,-1.0692,0,-1.2844,-1.2559,-1.2352,-1.2266,-1.2038,-1.1939,-1.1837,-1.1663,-1.1544,-1.1366,-1.1285,-1.1083,-1.0969,-1.0807,-1.0683,-1.0738,-1.0396,-1.0445,-1.0323,-1.0326,-1.025,-1.0255,-0.9988,-1.0189,-1.019,-1.019,-1.0191,0,-1.2639,-1.2466,-1.2308,-1.218,-1.198,-1.1874,-1.1675,-1.1568,-1.1413,-1.1252,-1.1183,-1.103,-1.0881,-1.0704,-1.0604,-1.037,-1.032,-1.0251,-1.0225,-1.0254,-1.0262,-1.0174,-1.0183,-1.0182,-1.0184,-1.0185,-1.0187,0,-1.2503,-1.2392,-1.216,-1.1966,-1.1912,-1.1773,-1.1599,-1.1464,-1.1361,-1.1158,-1.1103,-1.0935,-1.0724,-1.0587,-1.0314,-1.0246,-0.9988,-0.997,-1.0053,-1.0039,-0.9924,-0.9934,-0.9586,-0.953,-0.9776,-0.9774,-0.9772,0,-1.2377,-1.2244,-1.2037,-1.1931,-1.1832,-1.166,-1.154,-1.1427,-1.1302,-1.1086,-1.0974,-1.0761,-1.0584,-1.0246,-1.0091,-0.9879,-0.985,-0.9743,-0.9817,-0.9848,-0.9839,-0.9846,-0.9827,-0.9729,-0.9727,-0.9725,-0.9724,0,-1.2162,-1.2114,-1.1952,-1.1767,-1.1629,-1.1475,-1.132,-1.1233,-1.109,-1.0951,-1.0742,-1.0605,-1.033,-1.0114,-0.9889,-0.9767,-0.9715,-0.9703,-0.9662,-0.9687,-0.9738,-0.9701,-1.0013,-0.971,-0.9711,-0.9712,-0.9713,-0.9713,-1.2021,-1.1898,-1.1734,-1.1551,-1.1426,-1.1282,-1.1146,-1.1028,-1.0855,-1.063,-1.057,-1.0347,-1.0159,-0.9854,-0.9728,-0.9542,-0.9554,-0.9497,-0.9481,-0.9467,-0.9462,-0.9775,-0.9501,-0.9501,-0.9501,-0.9501,-0.9502,0,-1.1797,-1.1689,-1.1524,-1.1314,-1.1167,-1.1147,-1.0973,-1.0847,-1.0657,-1.0493,-1.0323,-1.0074,-0.9864,-0.9694,-0.9474,-0.9357,-0.9326,-0.9301,-0.9305,-0.9276,-0.9468,-0.9523,-0.9329,-0.9329,-0.9329,-0.9329,-0.9329,-0.9329,-1.1663,-1.1452,-1.1383,-1.1102,-1.0991,-1.0782,-1.0683,-1.0545,-1.0414,-1.0145,-0.9974,-0.987,-0.9697,-0.9464,-0.9265,-0.9219,-0.9137,-0.9115,-0.9063,-0.9244,-0.9263,-0.9281,-0.9331,-0.9101,-0.91,-0.8884,-0.8883,-0.8881]}]]